Location: Wildlife_Club
(35.6000°N, 81.4330°W)
Time: 15:25:56
(UTC-04:00)

Iridium 56 - Visible Passes

Search period start: 16 April 2014 00:00
Search period end: 26 April 2014 00:00
Orbit: 776 x 779 km, 86.4° (Epoch: 16 April)

Date Brightness Start Highest point End Pass type
(mag) Time Alt. Az. Time Alt. Az. Time Alt. Az.
16 Apr 8.7 05:54:11 10° NE 05:57:07 15° ENE 06:00:01 10° ESE visible
16 Apr 8.4 20:27:49 10° SW 20:31:52 23° W 20:35:57 10° NNW visible
19 Apr 8.3 05:53:23 10° NNE 05:57:24 22° E 06:01:23 10° SE visible
19 Apr 8.8 20:29:07 10° WSW 20:32:09 16° WNW 20:35:12 10° NW visible
20 Apr 8.9 05:21:58 10° ENE 05:23:34 11° ENE 05:25:10 10° E visible
22 Apr 7.5 05:52:59 10° NNE 05:57:38 32° E 06:02:15 10° SE visible
23 Apr 8.4 05:20:30 10° NE 05:23:53 17° ENE 05:27:14 10° ESE visible
25 Apr 6.7 05:52:47 10° N 05:57:49 48° E 06:02:49 10° SSE visible
